Location: Pasadena, ca
(34.1243°N, 118.1037°W)
Time: 07:48:53
(UTC-07:00)

Vanguard 2 - All Passes

Search period start: 22 July 2018 00:00
Search period end: 01 August 2018 00:00
Orbit: 553 x 2939 km, 32.9° (Epoch: 21 July)

Date Brightness Start Highest point End Pass type
(mag) Time Alt. Az. Time Alt. Az. Time Alt. Az.
22 Jul - 01:13:26 10° W 01:28:16 36° SW 01:39:40 10° SSE visible
22 Jul - 14:44:36 10° SSE 14:49:26 14° SE 14:55:16 10° E daylight
22 Jul - 16:47:18 10° SW 16:57:39 49° SSE 17:13:04 10° E daylight
22 Jul - 18:55:19 10° WSW 19:08:56 81° SSE 19:27:06 10° E daylight
22 Jul - 21:05:48 10° W 21:22:21 84° S 21:39:51 10° ESE visible
22 Jul - 23:17:53 10° W 23:35:20 61° SSW 23:50:09 10° SE visible
23 Jul - 01:32:42 10° W 01:45:49 28° SW 01:56:18 10° S visible
23 Jul - 15:00:05 10° S 15:06:45 21° SE 15:15:47 10° E daylight
23 Jul - 17:04:51 10° SW 17:15:30 59° SSE 17:31:41 10° E daylight
23 Jul - 19:13:27 10° W 19:27:20 84° S 19:45:33 10° E daylight
23 Jul - 21:24:07 10° W 21:40:47 80° SSW 21:58:06 10° ESE visible
23 Jul - 23:36:24 10° W 23:53:20 53° SSW 00:07:43 10° SE visible
24 Jul - 01:52:39 10° W 02:03:19 20° SW 02:12:14 10° S visible
24 Jul - 15:16:35 10° SSW 15:24:10 29° SE 15:35:14 10° E daylight
24 Jul - 17:22:36 10° WSW 17:33:31 68° SSE 17:50:13 10° E daylight
24 Jul - 19:31:39 10° W 19:45:46 86° S 20:04:02 10° E daylight
24 Jul - 21:42:26 10° W 21:59:08 74° SSW 22:16:13 10° ESE visible
24 Jul - 23:55:03 10° W 00:11:12 43° SW 00:25:01 10° SSE visible
25 Jul - 02:14:12 10° WSW 02:20:46 13° SW 02:26:41 10° SSW visible
25 Jul - 15:33:36 10° SSW 15:41:42 39° SE 15:54:12 10° E daylight
25 Jul - 17:40:30 10° WSW 17:51:40 76° SSE 18:08:44 10° E daylight
25 Jul - 19:49:53 10° W 20:04:14 86° S 20:22:29 10° E visible
25 Jul - 22:00:46 10° W 22:17:23 67° SSW 22:34:11 10° SE visible
26 Jul - 00:13:57 10° W 00:28:56 35° SW 00:41:57 10° SSE visible
26 Jul - 13:48:37 10° SSE 13:51:47 12° SE 13:55:29 10° ESE daylight
26 Jul - 15:50:58 10° SW 15:59:24 49° SSE 16:12:56 10° E daylight
26 Jul - 17:58:31 10° WSW 18:09:56 82° S 18:27:15 10° E daylight
26 Jul - 20:08:06 10° W 20:22:40 83° S 20:40:51 10° ESE visible
26 Jul - 22:19:09 10° W 22:35:32 59° SSW 22:51:55 10° SE visible
27 Jul - 00:33:18 10° W 00:46:37 27° SW 00:58:23 10° S visible
27 Jul - 14:03:57 10° S 14:09:08 19° SE 14:16:05 10° E daylight
27 Jul - 16:08:34 10° SW 16:17:15 59° SSE 16:31:31 10° E daylight
27 Jul - 18:16:38 10° W 18:28:17 85° S 18:45:46 10° E daylight
27 Jul - 20:26:20 10° W 20:41:04 78° SSW 20:59:09 10° ESE visible
27 Jul - 22:37:37 10° W 22:53:35 50° SSW 23:09:24 10° SE visible
28 Jul - 00:53:28 10° W 01:04:14 20° SW 01:14:02 10° S visible
28 Jul - 14:20:31 10° SSW 14:26:33 28° SE 14:35:28 10° E daylight
28 Jul - 16:26:22 10° WSW 16:35:15 69° SSE 16:50:03 10° E daylight
28 Jul - 18:34:46 10° W 18:46:40 86° S 19:04:18 10° E daylight
28 Jul - 20:44:35 10° W 20:59:24 71° SSW 21:17:16 10° ESE visible
28 Jul - 22:56:17 10° W 23:11:31 41° SW 23:26:35 10° SSE visible
29 Jul - 01:15:31 10° WSW 01:21:52 13° SW 01:27:53 10° SSW visible
29 Jul - 14:37:38 10° SSW 14:44:07 37° SE 14:54:21 10° E daylight
29 Jul - 16:44:17 10° WSW 16:53:23 77° SSE 17:08:35 10° E daylight
29 Jul - 18:52:56 10° W 19:05:04 84° S 19:22:47 10° E daylight
29 Jul - 21:02:52 10° W 21:17:37 63° SSW 21:35:11 10° SE visible
29 Jul - 23:15:16 10° W 23:29:22 32° SW 23:43:20 10° SSE visible
30 Jul - 12:53:39 10° SE 12:54:37 10° SE 12:55:39 10° ESE daylight
30 Jul - 14:55:03 10° SW 15:01:50 48° SSE 15:13:01 10° E daylight
30 Jul - 17:02:18 10° WSW 17:11:37 83° S 17:27:07 10° E daylight
30 Jul - 19:11:06 10° W 19:23:26 80° S 19:41:11 10° ESE daylight
30 Jul - 21:21:12 10° W 21:35:48 54° SSW 21:52:50 10° SE visible
30 Jul - 23:34:45 10° W 23:47:12 25° SW 23:59:31 10° S visible
31 Jul - 13:08:11 10° S 13:12:01 17° SE 13:16:59 10° E daylight
31 Jul - 15:12:43 10° SW 15:19:42 59° SSE 15:31:34 10° E daylight
31 Jul - 17:20:22 10° W 17:29:54 85° S 17:45:40 10° E daylight
31 Jul - 19:29:16 10° W 19:41:45 74° SSW 19:59:27 10° ESE daylight
31 Jul - 21:39:41 10° W 21:53:52 45° SSW 22:10:13 10° SE visible
